Starlink 31965

operational
NORAD ID: 59888 Int'l Des: 2024-100 Owner: SPXS Country: US Constellation: starlink
LEOCIRCULAR

About Starlink 31965

Description loading...

Live Position

Loading 3D Globe...

Upcoming Passes

Altitude History

Altitude vs Time

uPlot chart will show altitude changes over time

Two-Line Element Set

1 59888U 24100D 25305.52505048 .00027083 00000-0 98896-3 0 9992
2 59888 42.9999 129.3829 0001373 261.0004 99.0692 15.27617149 81459
Epoch: Nov 1, 2025 • Age: 24 hours

Current Status

Altitude 482.0 km
Velocity 7.63 km/s
Sub-Earth Point 6.70°N, 61.21°E
Launch Date May 28, 2024
Age 1.4 years
Type internet

Technical Details

Classification Payload
Mass 730.00 kg
Dry Mass 700.00 kg
Total Mass 730.00 kg
Length 0.30 m
Diameter 4.10 m
Span 29.00 m
Shape Box + pan
Manufacturer SPXS
Bus Type Starlink V2M
Phase Status In Orbit
Owner/State SPXS/US

Large Constellations

Loading constellations...